Tracking 18851 objects as of 25-Nov-2017
HD Live streaming from Space Station
objects crossing your sky now

FENGYUN 1C DEB

Track FENGYUN 1C DEB now!
10-day predictions


NORAD ID: 31319
Int'l Code: 1999-025BPX
Perigee: 863.1 km
Apogee: 1,115.3 km
Inclination: 98.8 °
Period: 104.7 minutes
Semi major axis: 7360 km
RCS: 0.0193 m2 (small)
Launch date: May 10, 1999
Source: People's Republic of China (PRC)
Launch site: Taiyaun Space Center, China (TSC)

Note: This is SATELLITE DEBRIS
aabbcc
Your satellite tracking list
Your tracking list is empty




NASA's NSSDC Master Catalog

Two Line Element Set (TLE):
1 31319U 99025BPX 17327.09265314 +.00000046 +00000-0 +81060-4 0  9991
2 31319 098.8412 054.9471 0171339 017.4363 100.1723 13.74885492532576
Source of the keplerian elements: AFSPC